Simultaneous Nadir Overpasses (SNOs) Predictions

Prediction of SNOs over PacNW region [( 10.00, 139.50) to ( 22.70, 165.60)] between AQUA and NPP Satellites:

Table of predicted SNOs over PacNW region for the next 30.0 days since TLE Epoch: 5/10/2015
Index Date (AQUA) Time (AQUA) AQUA Lat,Lon Date (NPP) Time (NPP) NPP Lat,Lon Distance(km) Time Diff (sec)
1 05/14/2015 02:41:51 17.51, 161.02 05/14/2015 02:39:47 17.25, 159.85 126.62 124
2 05/22/2015 03:29:32 12.09, 149.91 05/22/2015 03:28:58 11.79, 148.41 165.98 34
3 05/30/2015 02:40:40 15.51, 161.59 05/30/2015 02:39:09 15.22, 160.28 143.44 91




NCC Satellite Simultaneous Nadir Overpasses (SNOs) Prediction Service
